Temperature
11 11 11 12 12 12 12 12 13 13 14 14 14 14 14 14 15 15 15 16 16 16 16 16 16 17 17 17 17 17 17 17 17 17 16 16 16 16
10 10 11 11 12 12 12 12 12 12 13 14 14 14 14 14 14 15 15 15 16 16 16 16 16 16 16 16 17 17 17 17 17 17 16 16 16 16
10 10 10 10 11 11 12 12 12 12 12 13 13 13 13 13 14 14 15 15 15 15 16 16 16 16 16 16 16 16 16 17 16 16 16 16 16 16
9 10 10 10 10 10 11 11 11 11 11 12 12 13 13 13 13 14 14 14 15 15 15 16 16 16 16 16 16 16 16 16 16 16 16 16 16 16
9 9 9 9 10 10 10 11 11 11 11 11 12 12 12 13 13 13 14 14 14 15 15 15 16 16 16 16 16 16 16 16 16 16 16 16 16 16
8 9 9 9 9 9 10 10 10 11 11 11 12 12 12 12 13 13 13 14 14 14 15 15 15 15 15 16 16 16 16 16 16 16 16 16 16 16
8 8 8 9 9 9 9 10 10 10 11 11 11 12 12 12 12 13 13 13 13 14 14 15 15 15 15 15 15 15 15 16 16 16 16 16 16 16
8 8 8 8 9 9 9 9 9 9 10 10 11 11 12 12 12 12 12 13 13 13 13 14 14 14 15 15 15 15 15 15 16 16 16 16 16 16
8 8 8 9 8 8 9 9 9 9 9 9 10 10 11 11 11 12 12 12 13 13 13 13 13 13 14 14 15 15 15 15 15 15 15 15 16 16
8 8 8 8 8 8 8 8 8 9 9 9 9 10 10 11 11 11 11 12 12 12 12 12 12 13 13 13 14 14 14 15 15 15 15 15 15 15
8 8 8 8 8 8 8 8 8 8 9 9 9 9 10 10 10 11 11 11 11 12 12 12 12 12 12 13 13 13 14 14 14 14 15 15 15 15
8 8 8 8 8 7 7 7 8 8 8 9 9 9 9 10 10 10 11 11 11 11 12 12 12 12 11 12 12 13 13 13 14 14 14 14 14 14
8 8 8 8 8 7 7 7 7 8 8 8 9 9 9 9 10 10 10 11 11 11 11 11 12 11 11 11 11 12 12 12 13 13 13 13 13 13
7 7 7 7 7 7 7 7 7 7 7 8 8 9 9 9 10 10 10 10 11 11 11 12 11 12 12 11 11 11 11 12 12 12 12 12 13 13
7 7 7 7 7 7 7 7 7 7 7 8 8 9 9 9 9 10 10 10 10 10 11 11 11 11 12 12 11 11 11 11 11 11 12 12 12 12
7 7 7 7 7 7 7 7 7 7 7 7 8 8 9 9 9 9 9 10 10 10 10 10 11 11 11 11 12 11 11 11 11 11 11 11 11 12
7 7 6 6 6 6 7 7 7 7 7 7 8 8 8 9 9 9 9 9 9 10 10 10 10 10 11 11 11 11 11 10 11 11 11 11 11 11
6 6 7 7 7 7 7 7 7 7 7 7 7 8 8 8 9 9 9 9 10 10 10 10 10 10 10 10 10 11 10 10 10 10 11 10 10 11
6 6 7 7 7 7 7 7 7 7 7 7 7 8 8 8 8 9 9 9 9 9 9 9 9 10 10 10 10 10 10 10 10 10 10 10 10 10
7 7 7 7 7 7 7 7 7 7 7 7 7 7 8 8 8 8 9 9 9 9 9 9 9 9 10 10 10 10 10 10 10 10 10 10 10 10
7 7 7 7 7 7 7 7 7 7 7 7 7 7 8 8 8 8 9 9 9 9 9 9 9 9 10 10 10 10 10 10 10 10 10 10 9 9
7 7 7 7 7 7 7 7 7 7 7 7 7 7 8 8 8 8 9 9 9 9 9 9 9 9 9 9 9 10 9 9 9 9 9 10 10 9
7 7 7 7 7 7 7 7 7 7 7 7 8 8 8 8 8 8 9 9 9 9 9 9 9 9 9 9 9 9 9 9 9 8 8 9 9 10
Wind_Speed
12 12 11 10 9 9 8 8 9 10 9 7 5 5 5 7 8 11 14 16 22 25 27 28 29 30 30 31 31 30 29 28 28 27 27 27 26 25
11 12 11 11 9 9 9 9 9 10 10 8 6 6 5 6 8 11 12 13 17 21 23 25 26 27 28 29 29 29 28 27 27 26 26 25 24 24
12 13 13 13 11 10 10 10 10 10 11 10 8 7 7 7 6 8 9 10 12 18 20 21 23 25 26 27 27 27 26 26 25 25 24 23 22 21
13 14 14 12 13 12 11 12 11 10 10 12 9 8 8 7 6 7 7 8 9 13 18 18 20 22 23 24 25 25 25 24 24 23 22 22 21 19
13 14 14 14 14 12 12 12 11 11 10 11 11 8 7 6 5 6 6 5 7 9 13 16 17 19 21 22 22 23 23 23 22 22 21 20 19 18
13 14 14 15 15 14 13 13 12 12 11 11 11 9 7 6 5 5 5 5 5 6 7 9 12 15 17 19 20 21 22 22 21 21 20 19 17 16
13 14 14 14 13 12 12 12 12 11 11 11 11 10 8 7 6 4 5 5 4 5 6 7 8 9 11 15 18 19 20 20 20 19 18 17 16 15
14 14 14 14 14 14 15 15 14 13 13 11 11 11 9 8 6 5 5 6 4 6 7 6 7 8 8 10 15 19 19 19 19 18 18 17 16 15
14 13 12 12 12 14 15 18 18 18 16 14 13 12 10 9 8 8 7 7 5 6 7 6 6 6 6 9 16 18 18 18 18 17 17 16 15 14
14 13 13 13 12 12 13 14 15 16 16 15 15 14 12 9 8 8 7 5 4 6 7 5 6 5 5 8 14 16 16 17 17 17 17 16 15 14
13 12 12 13 10 8 12 13 14 14 13 13 12 10 8 6 6 7 7 7 7 6 6 4 5 5 5 5 9 14 15 15 16 17 17 17 17 16
11 11 10 12 9 7 12 13 14 13 13 12 12 11 12 11 10 11 9 9 7 5 6 6 7 6 4 4 6 9 11 13 15 16 17 19 19 13
10 9 8 8 10 10 11 13 12 11 11 11 10 11 11 11 11 11 10 9 8 5 7 7 7 6 5 5 5 6 8 9 11 12 16 17 15 10
11 10 7 3 8 10 11 12 10 9 10 10 10 10 10 10 10 11 11 9 7 6 8 8 6 8 8 7 5 6 7 8 9 9 11 13 9 6
10 10 9 7 9 11 14 13 11 11 11 11 11 10 10 9 9 9 9 8 8 8 9 8 8 8 9 8 8 8 7 7 8 9 10 10 9 10
10 9 11 13 12 11 9 11 12 12 11 11 10 10 9 8 9 9 9 9 8 7 8 9 9 10 8 9 10 10 9 9 10 10 10 9 10 11
8 8 8 8 8 9 9 10 10 11 11 11 10 9 10 9 9 9 9 10 9 8 8 7 6 6 7 9 10 11 11 10 10 11 10 10 8 9
8 9 9 8 9 8 9 9 9 10 10 11 10 10 10 10 9 9 9 10 10 10 9 9 8 6 4 2 5 11 11 10 11 11 11 10 10 10
8 9 9 8 8 8 8 8 9 9 9 10 10 10 10 10 10 10 10 10 10 10 10 10 10 9 9 7 5 6 10 10 11 11 10 10 10 11
7 8 8 8 7 7 7 7 8 8 8 9 9 10 10 10 10 10 10 11 11 11 10 10 11 11 10 9 7 6 9 11 12 12 11 8 7 9
6 7 7 7 7 7 6 6 7 8 8 8 9 10 10 10 11 11 10 11 10 10 11 11 10 10 6 6 7 7 8 8 9 9 11 10 10 10
6 6 6 6 6 6 6 6 7 7 8 9 9 9 10 10 11 12 11 11 11 11 11 9 11 10 8 9 10 10 9 8 7 9 8 4 7 10
6 6 6 6 5 5 6 7 7 7 8 9 9 9 10 10 10 11 11 11 10 11 10 10 10 10 9 9 9 9 12 12 9 8 5 5 5 5
Wind_Direction
261 253 251 257 255 258 261 262 269 277 273 263 255 251 255 255 243 235 232 218 211 210 211 211 210 209 208 207 208 210 211 212 215 217 218 219 221 222
261 266 263 259 255 252 254 257 258 264 271 273 269 268 272 278 248 241 233 216 211 210 210 208 207 206 205 204 205 206 207 209 212 214 215 217 219 220
263 259 255 257 259 257 251 250 252 255 263 268 268 268 260 266 268 247 232 217 212 204 204 204 203 203 202 201 201 202 203 206 208 210 211 213 215 217
264 263 260 255 250 254 255 253 253 254 258 266 270 265 254 254 253 244 230 216 213 195 195 198 199 199 198 197 196 198 200 202 203 204 206 207 209 211
267 264 261 259 255 252 252 253 252 251 248 256 262 259 254 251 247 238 223 216 210 188 184 188 191 192 192 191 191 193 195 197 197 198 199 199 201 203
268 265 262 259 255 253 252 252 254 256 254 252 257 254 246 238 232 231 220 204 201 186 174 174 178 182 186 185 187 189 192 193 193 192 192 193 196 198
269 265 260 258 264 263 261 258 254 252 252 249 249 250 244 229 222 225 222 196 195 188 170 168 169 175 181 181 180 182 183 184 184 185 187 189 190 192
271 267 262 252 245 241 250 258 262 259 257 255 251 248 245 241 229 217 219 203 203 187 176 171 172 170 176 180 173 174 175 175 175 177 179 180 182 183
272 268 264 259 246 248 237 232 241 245 250 256 258 256 251 238 236 223 217 214 212 187 174 169 168 164 159 149 155 163 166 167 167 168 170 171 173 175
268 266 264 264 259 255 255 249 244 239 234 237 246 253 256 246 235 234 225 218 204 193 184 177 167 158 145 143 151 156 159 161 162 163 163 162 162 161
267 265 264 263 256 245 254 257 255 250 239 235 246 251 257 249 237 232 218 206 199 190 188 174 160 146 143 146 146 151 153 156 158 158 157 155 151 146
271 265 252 250 267 244 251 254 254 250 246 233 226 231 236 229 217 222 221 215 202 192 181 171 162 155 145 144 148 152 149 149 151 154 155 154 155 154
279 275 268 212 228 238 249 256 262 269 256 247 239 232 228 228 222 216 218 216 208 201 174 169 168 167 154 143 147 156 156 154 154 154 157 162 169 172
277 278 282 209 224 235 243 254 263 266 253 247 240 233 228 225 221 214 207 211 216 205 180 174 174 173 161 154 150 154 157 161 161 157 157 160 162 148
274 287 293 277 253 244 237 239 241 242 240 239 236 234 231 226 218 205 198 198 203 196 186 187 183 177 174 167 157 157 158 167 170 162 161 168 170 165
265 264 247 246 248 255 247 229 231 234 235 236 236 233 231 223 215 204 197 191 192 187 187 191 191 185 184 174 165 165 166 167 172 169 165 169 174 178
300 280 270 259 248 242 240 236 230 227 228 230 229 228 224 219 214 205 197 194 196 190 181 179 182 184 187 175 172 173 171 168 169 168 168 169 176 180
273 266 265 262 259 251 240 233 229 227 225 224 222 223 222 216 209 206 201 199 198 192 184 174 167 160 154 156 176 174 174 170 166 170 176 174 176 180
254 262 263 263 260 254 245 236 230 225 222 220 217 217 218 215 209 205 200 200 200 195 186 178 176 177 176 176 176 191 175 166 164 171 182 182 179 176
250 259 261 259 260 256 247 237 231 223 217 214 213 213 212 211 207 206 203 201 196 192 187 184 187 190 189 180 166 171 180 169 170 174 177 179 155 133
268 265 262 259 257 253 247 234 224 221 215 210 211 209 209 209 207 205 203 198 199 195 193 191 186 181 182 163 156 156 165 163 165 171 170 168 163 167
282 277 272 263 252 246 242 234 222 216 212 211 211 209 207 208 206 205 203 199 200 200 197 184 170 175 185 186 177 165 157 152 127 119 116 123 178 185
279 279 277 274 257 242 239 235 229 219 212 211 208 208 205 206 205 203 203 205 202 198 192 181 176 180 185 184 176 165 161 160 159 158 146 51 69 102
Height
1497 1496 1496 1496 1496 1496 1496 1496 1496 1493 1492 1491 1491 1491 1491 1492 1493 1495 1497 1500 1504 1509 1514 1519 1524 1529 1534 1538 1543 1548 1552 1556 1560 1564 1568 1571 1574 1577
1491 1491 1490 1491 1491 1491 1491 1491 1491 1490 1488 1487 1487 1487 1487 1487 1488 1489 1491 1493 1497 1502 1506 1511 1516 1521 1526 1532 1536 1541 1546 1550 1554 1558 1562 1565 1568 1571
1486 1486 1485 1485 1486 1486 1486 1486 1485 1485 1484 1483 1483 1483 1482 1483 1483 1484 1486 1488 1491 1495 1500 1504 1509 1514 1519 1525 1530 1534 1539 1543 1548 1552 1555 1559 1562 1565
1480 1480 1479 1480 1479 1480 1480 1480 1480 1480 1479 1478 1478 1478 1478 1478 1479 1479 1481 1483 1486 1490 1493 1498 1503 1508 1513 1518 1523 1528 1532 1537 1541 1545 1550 1553 1556 1559
1474 1474 1473 1473 1473 1474 1474 1474 1474 1475 1474 1474 1473 1474 1474 1474 1475 1475 1477 1479 1482 1485 1488 1492 1497 1501 1506 1511 1516 1521 1526 1531 1535 1539 1543 1547 1550 1553
1468 1467 1467 1467 1467 1468 1468 1468 1469 1469 1469 1469 1469 1469 1469 1469 1470 1471 1473 1475 1477 1480 1483 1487 1491 1496 1500 1505 1510 1515 1520 1524 1529 1533 1538 1541 1545 1548
1462 1461 1461 1461 1461 1461 1462 1463 1463 1464 1464 1464 1464 1464 1464 1465 1466 1467 1469 1470 1473 1475 1478 1482 1486 1490 1494 1498 1503 1509 1513 1518 1523 1528 1532 1536 1539 1542
1456 1455 1455 1454 1454 1454 1455 1456 1457 1458 1458 1459 1459 1459 1460 1461 1462 1463 1465 1466 1469 1472 1474 1478 1481 1485 1489 1493 1498 1503 1508 1513 1518 1522 1527 1531 1534 1537
1451 1449 1449 1449 1449 1448 1448 1448 1449 1450 1452 1453 1454 1454 1455 1456 1458 1459 1460 1461 1464 1467 1470 1473 1477 1481 1485 1489 1494 1498 1503 1507 1512 1517 1521 1526 1529 1532
1445 1444 1443 1443 1443 1443 1443 1443 1443 1444 1445 1446 1448 1449 1451 1452 1453 1454 1456 1458 1460 1463 1466 1470 1473 1477 1481 1485 1490 1494 1499 1503 1508 1512 1517 1521 1524 1528
1439 1438 1437 1437 1437 1437 1437 1437 1437 1438 1439 1440 1442 1443 1444 1446 1448 1450 1452 1454 1455 1458 1462 1465 1469 1473 1478 1482 1486 1491 1495 1499 1504 1508 1512 1516 1520 1523
1434 1433 1432 1431 1431 1431 1431 1431 1432 1432 1434 1435 1436 1437 1438 1440 1442 1444 1447 1449 1451 1454 1456 1460 1464 1469 1474 1479 1482 1487 1491 1496 1500 1504 1509 1513 1516 1519
1430 1429 1427 1426 1425 1425 1425 1426 1426 1427 1428 1429 1430 1432 1433 1434 1436 1438 1441 1444 1447 1449 1452 1456 1460 1464 1469 1474 1478 1483 1487 1492 1496 1500 1505 1509 1513 1516
1425 1424 1423 1421 1420 1420 1420 1420 1421 1422 1423 1424 1425 1426 1428 1429 1431 1433 1436 1439 1442 1445 1448 1452 1456 1460 1465 1470 1475 1479 1484 1489 1493 1497 1501 1506 1510 1513
1419 1418 1417 1416 1415 1414 1414 1414 1415 1416 1418 1419 1420 1421 1423 1425 1427 1429 1432 1435 1438 1441 1445 1449 1453 1457 1462 1466 1471 1475 1480 1485 1490 1494 1498 1502 1506 1510
1415 1413 1411 1410 1409 1408 1408 1408 1409 1410 1412 1414 1415 1417 1419 1421 1423 1425 1428 1431 1434 1437 1441 1445 1449 1454 1458 1463 1468 1472 1477 1481 1486 1491 1495 1500 1504 1508
1410 1408 1406 1405 1404 1403 1403 1403 1403 1405 1406 1408 1410 1412 1414 1417 1419 1422 1424 1427 1431 1434 1437 1441 1445 1450 1455 1459 1464 1469 1474 1478 1483 1487 1492 1496 1500 1504
1405 1403 1402 1400 1399 1398 1398 1398 1398 1400 1401 1403 1406 1408 1410 1413 1415 1418 1421 1424 1428 1431 1434 1437 1441 1446 1451 1456 1460 1465 1470 1474 1479 1484 1489 1493 1497 1501
1400 1399 1397 1396 1394 1393 1393 1393 1394 1395 1397 1399 1401 1404 1406 1409 1411 1415 1418 1421 1424 1428 1431 1434 1438 1442 1446 1450 1456 1461 1466 1470 1475 1480 1485 1490 1494 1498
1396 1394 1393 1391 1390 1389 1389 1389 1390 1391 1393 1395 1397 1399 1402 1405 1408 1411 1414 1418 1421 1424 1428 1431 1435 1439 1443 1448 1452 1457 1462 1466 1471 1476 1481 1487 1492 1495
1393 1391 1389 1388 1386 1385 1385 1385 1386 1387 1389 1391 1393 1396 1399 1402 1405 1408 1411 1414 1418 1421 1424 1428 1431 1436 1441 1446 1449 1453 1458 1463 1468 1472 1478 1483 1487 1490
1390 1388 1386 1384 1383 1382 1382 1382 1383 1384 1386 1388 1390 1393 1396 1399 1402 1405 1408 1412 1415 1419 1422 1426 1429 1433 1437 1441 1445 1449 1453 1459 1464 1470 1475 1479 1482 1486
1387 1385 1383 1382 1380 1379 1379 1379 1380 1381 1383 1385 1387 1390 1393 1396 1399 1403 1406 1409 1412 1416 1419 1423 1426 1430 1434 1438 1442 1446 1450 1454 1459 1465 1471 1475 1479 1484